Waarnemingen

Advertentie
Mijn weer
Twenthe, Nederland (6290): temperatuur & dauwpunt: 22.05.2017 06:00:00 - 28.05.2017 06:00:00 (CEST)Twenthe, Nederland (6290): temperatuur 5cm: 22.05.2017 06:00:00 - 28.05.2017 06:00:00 (CEST)Twenthe, Nederland (6290): windsnelheid & windstoten: 22.05.2017 06:00:00 - 28.05.2017 06:00:00 (CEST)Twenthe, Nederland (6290): windrichting: 22.05.2017 06:00:00 - 28.05.2017 06:00:00 (CEST)Twenthe, Nederland (6290): luchtdruk: 22.05.2017 06:00:00 - 28.05.2017 06:00:00 (CEST)Twenthe, Nederland (6290): zicht: 22.05.2017 06:00:00 - 28.05.2017 06:00:00 (CEST)Twenthe, Nederland (6290): neerslag: 22.05.2017 06:00:00 - 28.05.2017 06:00:00 (CEST)
Datum & Tijd tt [°C] td [°C] tt 5cm [°C] ff [km/u] ff [kn] fx [km/u] fx [kn] dd ppp [hPa] vv [km] rr [mm]
28.05.2017 06:00:00 16,0 14,5 15,8 14 8 29 16 NW 1018,6 3,2 3,4
28.05.2017 05:00:00 15,2 14,6 12,5 4 2 7 4 NNO 1017,4 13 0,0
28.05.2017 04:00:00 14,3 13,8 11,6 0 0 7 4 N 1017,4 10 0,0
28.05.2017 03:00:00 15,5 14,7 12,3 4 2 4 2 ZW 1017,3 16 0,0
28.05.2017 02:00:00 17,0 15,1 13,5 4 2 4 2 W 1017,5 19 0,0
28.05.2017 01:00:00 19,4 15,2 16,6 4 2 18 10 NNW 1017,2 32 0,0
28.05.2017 00:00:00 19,7 13,7 16,0 7 4 25 14 ZZW 1017,0 50 0,0
27.05.2017 23:00:00 21,6 14,4 16,2 7 4 14 8 ZO 1016,4 50 0,0
27.05.2017 22:00:00 23,9 14,2 20,3 11 6 18 10 OZO 1016,1 44 0,0
27.05.2017 21:00:00 25,7 14,0 23,3 11 6 14 8 O 1015,6 45 0,0
27.05.2017 20:00:00 28,9 9,0 27,8 11 6 25 14 ZO 1015,5 38 0,0
27.05.2017 19:00:00 29,9 8,4 29,8 14 8 29 16 OZO 1015,4 23 0,0
27.05.2017 18:00:00 29,8 11,8 31,1 18 10 32 18 ZO 1015,8 21 0,0
27.05.2017 17:00:00 29,6 12,1 31,8 18 10 36 19 OZO 1016,0 23 0,0
27.05.2017 16:00:00 29,8 13,5 32,5 18 10 32 18 OZO 1016,5 25 0,0
27.05.2017 15:00:00 29,1 12,8 32,2 18 10 36 19 ZZO 1017,1 27 0,0
27.05.2017 14:00:00 28,4 12,8 32,2 22 12 36 19 ZO 1017,6 33 0,0
27.05.2017 13:00:00 27,9 12,1 31,8 18 10 32 18 ZO 1017,8 34 0,0
27.05.2017 12:00:00 26,8 13,5 30,0 14 8 32 18 OZO 1018,3 36 0,0
27.05.2017 11:00:00 25,9 14,4 28,6 14 8 29 16 ZO 1019,0 38 0,0
27.05.2017 10:00:00 24,0 13,3 26,9 18 10 25 14 ZO 1019,5 29 0,0
27.05.2017 09:00:00 21,8 13,5 23,8 14 8 22 12 OZO 1019,9 31 0,0
27.05.2017 08:00:00 19,6 13,2 20,2 11 6 18 10 OZO 1019,9 25 0,0
27.05.2017 07:00:00 16,8 12,8 16,5 11 6 18 10 OZO 1020,0 22 0,0
27.05.2017 06:00:00 15,8 12,7 13,8 11 6 18 10 O 1019,7 22 0,0
27.05.2017 05:00:00 15,7 12,8 13,9 11 6 22 12 O 1019,7 24 0,0
27.05.2017 04:00:00 15,9 12,8 14,1 7 4 22 12 O 1019,5 31 0,0
27.05.2017 03:00:00 17,0 13,0 15,4 11 6 22 12 O 1019,4 34 0,0
27.05.2017 02:00:00 17,9 13,0 16,1 14 8 22 12 O 1019,8 44 0,0
27.05.2017 01:00:00 18,6 13,0 17,0 14 8 25 14 O 1019,9 45 0,0
27.05.2017 00:00:00 19,0 12,7 17,3 18 10 25 14 ONO 1020,0 49 0,0
26.05.2017 23:00:00 19,8 12,5 17,1 14 8 18 10 ONO 1020,2 49 0,0
26.05.2017 22:00:00 19,6 12,4 16,6 11 6 14 8 ONO 1020,1 48 0,0
26.05.2017 21:00:00 22,6 12,4 21,0 11 6 18 10 ONO 1019,7 44 0,0
26.05.2017 20:00:00 24,4 11,5 23,8 11 6 22 12 ONO 1020,1 41 0,0
26.05.2017 19:00:00 25,5 10,8 26,1 14 8 29 16 ONO 1019,9 45 0,0
26.05.2017 18:00:00 26,2 10,4 27,5 14 8 29 16 ONO 1020,2 43 0,0
26.05.2017 17:00:00 26,2 10,4 28,7 14 8 29 16 O 1020,6 34 0,0
26.05.2017 16:00:00 26,0 10,7 29,0 14 8 25 14 ONO 1021,0 36 0,0
26.05.2017 15:00:00 25,6 11,6 29,2 14 8 22 12 NO 1021,4 40 0,0
26.05.2017 14:00:00 25,2 12,4 28,5 11 6 29 16 O 1022,1 34 0,0
26.05.2017 13:00:00 24,1 12,1 28,1 11 6 22 12 ONO 1022,5 40 0,0
26.05.2017 12:00:00 22,5 12,9 25,9 7 4 18 10 ONO 1022,9 31 0,0
26.05.2017 11:00:00 21,0 13,6 24,1 7 4 14 8 NNO 1023,4 29 0,0
26.05.2017 10:00:00 19,5 14,2 22,2 4 2 11 6 NO 1023,7 33 0,0
26.05.2017 09:00:00 17,1 12,9 20,1 7 4 11 6 NO 1023,8 21 0,0
26.05.2017 08:00:00 15,3 12,6 16,3 7 4 11 6 NO 1023,7 17 0,0
26.05.2017 07:00:00 12,5 11,2 11,8 4 2 7 4 NNO 1023,5 10 0,0
26.05.2017 06:00:00 10,1 10,1 5,3 4 2 7 4 O 1023,9 8 0,0
26.05.2017 05:00:00 10,2 9,4 5,9 4 2 14 8 ONO 1023,7 12 0,0
26.05.2017 04:00:00 10,8 9,4 6,9 11 6 14 8 NNO 1023,5 47 0,0
26.05.2017 03:00:00 11,2 9,4 8,3 7 4 11 6 NNO 1023,4 31 0,0
26.05.2017 02:00:00 12,6 10,3 8,6 7 4 11 6 N 1023,7 13 0,0
26.05.2017 01:00:00 12,5 10,2 9,2 7 4 11 6 NNO 1024,0 42 0,0
26.05.2017 00:00:00 14,3 11,5 10,1 7 4 18 10 NNO 1023,9 16 0,0
25.05.2017 23:00:00 14,9 11,5 12,7 11 6 18 10 NNO 1023,9 47 0,0
25.05.2017 22:00:00 16,7 11,9 15,1 11 6 18 10 N 1023,5 41 0,0
25.05.2017 21:00:00 18,9 12,1 18,0 11 6 22 12 N 1023,3 48 0,0
25.05.2017 20:00:00 20,4 12,1 20,6 18 10 25 14 NNO 1023,3 43 0,0
25.05.2017 19:00:00 21,7 12,1 23,0 18 10 25 14 N 1023,3 46 0,0
25.05.2017 18:00:00 22,6 12,3 24,4 14 8 29 16 N 1023,6 47 0,0
25.05.2017 17:00:00 22,3 12,1 23,5 14 8 29 16 N 1023,8 42 0,0
25.05.2017 16:00:00 22,7 11,8 25,4 11 6 25 14 NNW 1024,1 31 0,0
25.05.2017 15:00:00 22,5 12,7 25,1 7 4 29 16 NNW 1024,4 33 0,0
25.05.2017 14:00:00 21,3 12,1 24,2 11 6 25 14 N 1024,9 37 0,0
25.05.2017 13:00:00 19,9 10,6 23,0 14 8 22 12 N 1025,1 36 0,0
25.05.2017 12:00:00 18,9 10,9 21,5 7 4 18 10 NW 1025,2 35 0,0
25.05.2017 11:00:00 16,8 10,7 19,7 7 4 18 10 NNW 1025,5 38 0,0
25.05.2017 10:00:00 15,2 10,8 16,2 7 4 18 10 N 1025,6 23 0,0
25.05.2017 09:00:00 13,0 10,0 14,0 7 4 18 10 NW 1025,5 20 0,0
25.05.2017 08:00:00 11,7 9,9 11,3 7 4 11 6 W 1025,2 13 0,0
25.05.2017 07:00:00 10,6 9,5 10,4 7 4 14 8 WNW 1024,7 10 0,0
25.05.2017 06:00:00 10,2 9,6 10,1 11 6 14 8 N 1024,6 8 0,0
25.05.2017 05:00:00 9,7 9,4 6,0 7 4 11 6 NW 1024,3 8 0,0
25.05.2017 04:00:00 7,7 7,4 2,7 7 4 7 4 NW 1024,3 1,1 0,0
25.05.2017 03:00:00 9,4 9,3 4,3 4 2 7 4 WNW 1024,6 1,2 0,0
25.05.2017 02:00:00 10,6 9,7 9,0 7 4 14 8 NNW 1024,6 17 0,0
25.05.2017 01:00:00 11,8 10,3 10,8 7 4 18 10 N 1024,5 22 0,0
25.05.2017 00:00:00 12,3 10,4 10,9 7 4 14 8 NNW 1024,3 46 0,0
24.05.2017 23:00:00 13,9 10,6 12,6 11 6 18 10 NW 1024,0 49 0,0
24.05.2017 22:00:00 15,2 10,8 14,0 14 8 25 14 NW 1023,7 49 0,0
24.05.2017 21:00:00 17,0 10,9 16,5 18 10 32 18 NW 1023,3 49 0,0
24.05.2017 20:00:00 18,3 10,3 18,2 14 8 29 16 NW 1023,0 46 0,0
24.05.2017 19:00:00 18,8 11,3 18,6 18 10 29 16 NW 1022,7 46 0,0
24.05.2017 18:00:00 20,0 12,3 20,0 18 10 36 19 NW 1022,8 36 0,0
24.05.2017 17:00:00 19,8 12,3 20,2 18 10 29 16 NW 1023,0 27 0,0
24.05.2017 16:00:00 19,6 11,8 19,2 14 8 25 14 WNW 1023,0 26 0,0
24.05.2017 15:00:00 18,8 11,1 19,1 14 8 29 16 WNW 1023,0 34 0,0
24.05.2017 14:00:00 19,3 10,7 20,9 11 6 29 16 W 1023,2 31 0,0
24.05.2017 13:00:00 18,3 9,8 20,0 11 6 18 10 W 1023,7 31 0,0
24.05.2017 12:00:00 17,6 8,8 19,4 4 2 7 4 WZW 1023,8 29 0,0
24.05.2017 11:00:00 16,2 8,3 17,6 4 2 7 4 ZZW 1023,7 41 0,0
24.05.2017 10:00:00 15,4 8,6 16,8 4 2 11 6 WNW 1023,7 39 0,0
24.05.2017 09:00:00 14,1 9,4 14,4 4 2 4 2 N 1023,8 31 0,0
24.05.2017 08:00:00 12,6 9,3 12,5 4 2 4 2 ZZW 1023,3 40 0,0
24.05.2017 07:00:00 10,2 9,0 8,9 0 0 7 4 N 1023,1 33 0,0
24.05.2017 06:00:00 9,4 7,5 6,5 0 0 14 8 N 1022,8 37 0,0
24.05.2017 05:00:00 9,3 7,7 6,5 4 2 7 4 ZZW 1022,7 38 0,0
24.05.2017 04:00:00 8,1 6,9 4,3 4 2 7 4 WZW 1022,8 33 0,0
24.05.2017 03:00:00 9,1 7,2 5,0 4 2 7 4 WZW 1022,7 37 0,0
24.05.2017 02:00:00 9,8 6,8 5,4 4 2 11 6 WZW 1022,9 37 0,0
24.05.2017 01:00:00 9,8 6,9 6,3 7 4 11 6 W 1023,0 33 0,0
24.05.2017 00:00:00 11,4 6,7 9,0 7 4 14 8 W 1022,8 42 0,0
23.05.2017 23:00:00 12,7 6,2 11,6 11 6 18 10 WNW 1022,8 40 0,0
23.05.2017 22:00:00 13,6 6,8 12,7 11 6 - - WNW 1022,4 38 -
23.05.2017 21:00:00 14,8 6,1 14,0 14 8 29 16 WNW 1021,5 46 0,0
23.05.2017 20:00:00 16,6 5,7 16,8 18 10 36 19 NW 1021,0 43 0,0
23.05.2017 19:00:00 17,5 6,0 17,8 22 12 36 19 WNW 1020,1 43 0,0
23.05.2017 18:00:00 18,9 8,0 19,8 25 14 43 23 NW 1019,5 38 0,0
23.05.2017 17:00:00 19,2 9,9 20,1 25 14 43 23 NW 1019,1 30 0,0
23.05.2017 16:00:00 20,4 11,5 21,1 29 16 43 23 WNW 1018,3 31 0,0
23.05.2017 15:00:00 21,6 13,2 22,9 29 16 43 23 W 1017,5 17 0,0
23.05.2017 14:00:00 22,9 10,0 23,7 18 10 36 19 W 1016,6 42 0,0
23.05.2017 13:00:00 23,1 10,2 24,5 22 12 36 19 W 1016,3 45 0,0
23.05.2017 12:00:00 23,0 9,7 24,6 22 12 36 19 W 1016,1 27 0,0
23.05.2017 11:00:00 22,0 12,1 22,6 18 10 25 14 WZW 1015,7 15 0,0
23.05.2017 10:00:00 21,5 12,2 22,6 14 8 18 10 W 1015,4 19 0,0
23.05.2017 09:00:00 18,5 11,5 18,5 11 6 18 10 W 1015,2 18 0,0
23.05.2017 08:00:00 18,0 11,6 18,0 7 4 18 10 ZW 1015,0 25 0,0
23.05.2017 07:00:00 15,8 11,2 12,2 4 2 14 8 Z 1014,5 27 0,0
23.05.2017 06:00:00 13,0 9,6 8,4 7 4 11 6 ZZO 1014,3 32 0,0
23.05.2017 05:00:00 13,1 9,9 10,1 4 2 7 4 ZO 1014,5 33 0,0
23.05.2017 04:00:00 14,5 9,8 11,9 7 4 11 6 ZO 1014,8 38 0,0
23.05.2017 03:00:00 14,7 9,7 11,1 7 4 11 6 ZO 1014,9 40 0,0
23.05.2017 02:00:00 15,6 9,3 12,2 7 4 11 6 OZO 1015,0 41 0,0
23.05.2017 01:00:00 16,1 9,3 11,2 7 4 11 6 OZO 1015,5 45 0,0
23.05.2017 00:00:00 13,7 10,1 10,0 7 4 11 6 OZO 1015,9 48 0,0
22.05.2017 23:00:00 15,0 10,3 10,7 4 2 7 4 OZO 1016,2 49 0,0
22.05.2017 22:00:00 17,5 9,9 13,2 7 4 11 6 O 1016,1 50 0,0
22.05.2017 21:00:00 19,5 8,6 15,5 7 4 11 6 O 1016,0 45 0,0
22.05.2017 20:00:00 22,1 8,5 21,2 7 4 14 8 OZO 1016,3 40 0,0
22.05.2017 19:00:00 21,7 8,3 21,0 11 6 18 10 O 1016,2 48 0,0
22.05.2017 18:00:00 23,3 6,8 24,7 7 4 18 10 OZO 1016,8 41 0,0
22.05.2017 17:00:00 23,5 7,6 23,9 11 6 25 14 NO 1017,4 32 0,0
22.05.2017 16:00:00 23,2 6,8 25,7 14 8 25 14 O 1017,8 40 0,0
22.05.2017 15:00:00 22,9 6,6 26,3 11 6 25 14 ZO 1018,4 38 0,0
22.05.2017 14:00:00 23,4 8,3 26,5 11 6 29 16 ZO 1019,1 35 0,0
22.05.2017 13:00:00 21,9 7,1 22,0 14 8 25 14 OZO 1019,6 37 0,0
22.05.2017 12:00:00 21,2 7,8 22,3 11 6 29 16 ZO 1020,3 31 0,0
22.05.2017 11:00:00 21,2 8,9 24,1 11 6 18 10 ZZO 1020,6 24 0,0
22.05.2017 10:00:00 19,5 9,0 22,3 11 6 18 10 OZO 1021,0 26 0,0
22.05.2017 09:00:00 17,5 9,5 19,2 11 6 18 10 OZO 1021,2 27 0,0
22.05.2017 08:00:00 14,6 9,2 15,1 7 4 22 12 OZO 1021,2 23 0,0
22.05.2017 07:00:00 12,7 8,0 11,8 11 6 18 10 O 1021,4 24 0,0
22.05.2017 06:00:00 11,4 8,2 9,7 11 6 22 12 O 1021,7 17 0,0

tt = temperatuur
td = dauwpunt
tt 5cm = temperatuur 5cm
ff = windsnelheid
fx = windstoten
dd = windrichting
ppp = luchtdruk
vv = zicht
rr = neerslag

Weerstations in de omgeving